Regional Weather Roundup
Issued by NWS Midland/Odessa, TX

Skip options and go directly to product.
Home | Oldest Version | Previous Version | Current Version | All | Text Only | Save Text | Print | Product List | Glossary On

Skip product version selection by date and time.   
377
ASUS44 KMAF 010010
RWRMAF
MIDLAND AREA WEATHER ROUNDUP
NATIONAL WEATHER SERVICE MIDLAND TX
600 PM CST SAT FEB 28 2015

...IN SOUTHWEST TEXAS AND SOUTHEAST NEW MEXICO...

CITY           SKY/WX    TMP DP  RH WIND       PRES   REMARKS
ALPINE         SUNNY     47  36  65 NE6       30.08S
ANDREWS        FOG       29  29 100 SE6       30.10S VSB 1/2 WCI  23
ARTESIA        CLOUDY    30  28  93 S7        30.07R WCI  23
BIG SPRING     CLOUDY    29  27  92 E7        30.17S WCI  22
CARLSBAD       CLOUDY    31  26  82 SE9       30.06R WCI  23
DRYDEN           N/A     38  37  97 E7        30.11S WCI  33
FORT STOCKTON  CLOUDY    39  36  89 E14       30.07R WCI  31
GUAD PASS      NOT AVBL
HOBBS          CLOUDY    28  28 100 SE5       30.08R FOG     WCI  23
MARFA          SUNNY     61  32  33 S7        30.02S
MIDLAND AIRPK  CLOUDY    32  32 100 E6        30.13S FOG     WCI  26
MIDLAND INTL   FOG       31  29  92 SE9       30.11S VSB 3/4 WCI  23
ODESSA         FOG       31  29  92 SE8       30.10S VSB 3/4 WCI  23
PECOS          CLOUDY    32  31  96 CALM      30.09F FOG
PRESIDIO       FAIR      64  37  37 SE3       29.94S
SEMINOLE       FOG      N/A N/A N/A E5        30.12R VSB 3/4
SNYDER         CLOUDY    27  26  96 E5        30.18S FOG     WCI  21
WINK           CLOUDY    37  29  72 SE9       30.07S WCI  30
$$
...OTHER STATIONS IN TEXAS...

CITY           SKY/WX    TMP DP  RH WIND       PRES   REMARKS
ABILENE        CLOUDY    28  26  92 SE7       30.22S WCI  21
AMARILLO       CLOUDY    23  18  81 SW12      30.10R WCI  12
AUSTIN         DRIZZLE   36  36 100 N9        30.25S FOG     WCI  29
BROWNSVILLE    LGT RAIN  50  49  96 NW7       30.13R FOG
CORPUS CHRISTI LGT RAIN  55  53  93 N13       30.13R FOG
DALLAS FTW     FRZ RAIN  31  29  92 NE6       30.31R FOG     WCI  25
DEL RIO        CLOUDY    45  40  82 SE6       30.16R
EL PASO        MOSUNNY   69  28  21 VRB3      29.87S
HOUSTON INT    LGT RAIN  55  45  68 E9        30.22R
LUBBOCK        FOG       24  22  91 SE7       30.12R VSB 1/2 WCI  16
SAN ANGELO     CLOUDY    30  29  96 E7        30.19S FOG     WCI  23
SAN ANTONIO    DRIZZLE   38  35  89 N8        30.20S FOG     WCI  32
WACO           CLOUDY    33  32  96 N10       30.30R FOG     WCI  25
WICHITA FALLS  NOT AVBL
$$
...OTHER LOCATIONS IN NEW MEXICO...

CITY           SKY/WX    TMP DP  RH WIND       PRES   REMARKS
ALAMAGORDO     CLOUDY    59  28  31 S14G24    29.91S
ALBUQUERQUE    PTSUNNY   35  26  69 N15       29.91R WCI  25
CANNON AFB     CLOUDY    26  24  91 SW9       30.03S WCI  17
CLOVIS         CLOUDY    25  21  86 S10       30.04S WCI  15
HOLLOMAN AFB   CLOUDY    62  28  27 S13       29.88F
ROSWELL        CLOUDY    28  24  85 CALM      30.05R
RUIDOSO        MOSUNNY   48  30  49 SW20G26   29.96S
SANTA FE       LGT SNOW  33  28  81 CALM      29.90R
TRUTH OR CONSE CLOUDY    62  34  35 SW15G24   29.85R
TUCUMCARI      CLOUDY    25  20  81 SW12      30.02R WCI  14
$$

USA.gov is the U.S. government's official web portal to all federal, state and local government web resources and services.